Zurück zum Katalog

METEOR 2-6 DEB

LostPO
NORAD 43297·DEBRIS·🇷🇺 Russia

Gestartet Sep 9, 1980 von Plesetsk Cosmodrome

Loading…

Nächste Überflüge (nächste 24 Stunden)

TLE

VeraltetSource: Space-Track

Epoche: Dec 4, 2023, 09:27 UTC

1 43297U 80073R   23338.39443688  .00005722  00000-0  22917-2 0  9996
2 43297  81.1929 222.3495 0038494 102.1030 258.4468 14.27816284460155

Verfolge METEOR 2-6 DEB in Echtzeit mit AllMySat

Download on the App Store